CST,Max TemperatureF,Mean TemperatureF,Min TemperatureF,Max Dew PointF,MeanDew PointF,Min DewpointF,Max Humidity, Mean Humidity, Min Humidity, Max Sea Level PressureIn, Mean Sea Level PressureIn, Min Sea Level PressureIn, Max VisibilityMiles, Mean VisibilityMiles, Min VisibilityMiles, Max Wind SpeedMPH, Mean Wind SpeedMPH, Max Gust SpeedMPH,PrecipitationIn, CloudCover, Events, WindDirDegrees
2012-12-1,68,54,40,48,43,36,89,66,42,30.30,30.23,30.18,10,10,10,15,5,21,0.00,2,,181
2012-12-2,72,65,57,56,52,45,68,59,49,30.20,30.16,30.13,10,10,10,24,12,35,0.00,6,,204
2012-12-3,75,68,61,56,52,50,72,59,46,30.21,30.15,30.11,10,10,10,20,10,24,0.00,3,,193
2012-12-4,67,59,50,61,57,43,93,77,60,30.25,30.13,30.07,10,8,2,18,10,23,0.37,8,Rain,240
2012-12-5,62,50,38,45,39,33,100,67,34,30.35,30.29,30.24,10,8,1,14,3,16,0.00,1,,42
2012-12-6,56,47,37,52,45,33,93,82,71,30.17,30.06,29.99,10,8,0,7,2,22,0.02,7,Fog-Rain,78
2012-12-7,63,56,49,55,52,46,100,86,72,29.99,29.94,29.88,10,8,0,18,9,24,0.01,6,Fog-Rain,195
2012-12-8,63,60,56,58,56,53,90,84,78,29.98,29.93,29.88,9,6,1,12,5,15,0.49,8,Rain-Thunderstorm,233
2012-12-9,67,61,55,61,57,53,93,83,73,29.96,29.87,29.75,10,6,1,22,8,28,1.34,8,Rain-Thunderstorm,193
2012-12-10,60,47,34,57,40,26,93,84,75,30.04,29.83,29.71,10,8,2,14,7,24,0.25,8,Rain-Thunderstorm,313
2012-12-11,40,33,26,26,23,20,85,67,48,30.30,30.18,30.06,10,10,3,9,3,24,0.00,4,,343
2012-12-12,48,36,23,30,23,20,88,61,34,30.40,30.36,30.30,10,9,6,12,2,26,0.00,0,,63
2012-12-13,53,38,23,32,25,19,92,62,32,30.44,30.37,30.32,10,10,7,3,0,13,0.00,0,,-1
2012-12-14,58,41,24,37,30,21,92,64,36,30.36,30.26,30.14,10,10,9,9,1,12,0.00,0,,222
2012-12-15,61,51,41,54,45,36,82,71,60,30.14,29.96,29.84,10,10,7,22,10,28,0.06,6,Rain,175
2012-12-16,64,59,53,57,55,51,93,83,73,29.83,29.77,29.69,10,10,10,20,8,26,0.00,4,,199
2012-12-17,64,55,45,55,50,41,89,78,67,29.77,29.69,29.59,10,9,2,26,7,37,0.27,7,Rain-Thunderstorm,234
2012-12-18,56,49,42,41,36,32,89,66,43,29.96,29.88,29.77,10,10,10,20,8,29,0.00,3,,240
2012-12-19,63,49,34,47,41,33,85,67,48,30.05,29.97,29.86,10,10,10,13,4,16,0.00,0,,140
2012-12-20,60,48,35,52,40,24,86,66,46,29.86,29.64,29.45,10,8,2,35,18,53,0.85,7,Rain-Snow,217
2012-12-21,42,36,29,22,17,14,63,50,37,30.27,30.09,29.88,10,10,10,28,14,37,0.00,2,,286
2012-12-22,44,33,22,19,17,14,68,51,33,30.37,30.25,30.11,10,10,10,10,3,13,0.00,0,,212
2012-12-23,55,42,28,46,36,20,93,72,50,30.10,29.99,29.88,10,9,2,14,7,18,T,4,,195
2012-12-24,57,46,35,50,44,29,100,86,72,30.06,29.89,29.79,10,7,2,12,5,17,0.09,8,Rain,279
2012-12-25,39,37,34,34,30,27,92,78,64,30.14,30.01,29.66,10,8,3,25,12,32,0.21,8,Rain,45
2012-12-26,41,37,33,38,32,27,92,84,75,30.09,29.67,29.43,10,6,1,28,12,35,0.78,8,Rain-Snow,321
2012-12-27,36,35,33,28,27,26,82,76,70,30.22,30.16,30.10,10,10,8,9,4,14,0.00,8,,358
2012-12-28,40,36,32,37,33,27,92,81,70,30.13,29.94,29.78,10,7,2,13,4,16,0.48,7,Rain,82
2012-12-29,39,34,29,36,28,17,92,78,63,30.38,30.04,29.76,10,8,3,18,10,24,0.04,8,Rain-Snow,290
2012-12-30,39,30,21,24,21,17,85,70,54,30.56,30.46,30.37,10,10,6,13,3,16,0.00,1,,236
2012-12-31,41,33,25,36,30,21,92,76,59,30.36,30.21,30.07,10,8,2,12,4,15,0.15,6,Rain,166